DW3212 Weather Reports


time (UTC)temp
F
wind
direction
speed
knots
gust
knots
rain 1hr
in
rain 24hr
in
rain mn
in
humidity
%
barometer
mb
20260904064602 59 0.0 0.0 0.00 0.02 0.00 92 1012.8
20260904063110 59 0.0 0.0 0.00 0.02 0.00 92 1012.8
20260904061604 59 0.0 0.0 0.00 0.02 0.00 91 1012.9
20260904060115 60 0.0 0.0 0.00 0.02 0.00 90 1013.1
20260904054607 60 0.0 0.0 0.00 0.02 0.00 90 1013.1
20260904053059 61 0.0 0.0 0.00 0.02 0.00 89 1013.5
20260904051602 61 0.0 0.0 0.00 0.02 0.00 87 1013.8
20260904050106 61 0.0 0.0 0.00 0.02 0.00 87 1013.8
20260904044607 62 0.0 0.0 0.00 0.02 0.00 86 1013.9
20260904043102 62 0.0 0.0 0.00 0.02 0.00 85 1013.9
20260904041601 62 0.0 0.0 0.00 0.02 0.00 84 1013.9
20260904040109 63 0.0 0.0 0.00 0.02 0.00 85 1013.9
20260904034615 63 0.0 0.0 0.00 0.02 0.02 83 1013.8
20260904033106 64 0.0 0.0 0.00 0.02 0.02 83 1013.9
20260904031608 64 0.0 0.0 0.00 0.02 0.02 85 1014.3
20260904024607 63 0.0 0.0 0.00 0.02 0.02 89 1014.5
20260904023107 64 0.0 0.0 0.00 0.02 0.02 89 1014.6
20260904021600 64 0.0 0.0 0.00 0.02 0.02 89 1014.6
20260904020106 65 0.0 0.0 0.00 0.02 0.02 87 1014.7
20260904014601 66 0.0 0.0 0.00 0.02 0.02 86 1014.7
20260904013101 66 0.0 0.0 0.00 0.02 0.02 85 1014.7
20260904011604 67 0.0 0.0 0.00 0.02 0.02 85 1014.7
20260904004604 67 0.0 0.0 0.00 0.02 0.02 84 1014.6
20260904003100 66 0.0 0.0 0.00 0.02 0.02 86 1014.4
20260904001602 67 0.0 0.0 0.00 0.02 0.02 85 1014.3
20260904000134 67 0.0 0.0 0.00 0.02 0.02 84 1013.9
20260903234607 67 0.0 0.0 0.00 0.02 0.02 86 1013.9
20260903233103 67 0.0 0.0 0.00 0.02 0.02 86 1013.7
20260903231600 67 0.0 0.0 0.00 0.02 0.02 88 1013.8
20260903230113 67 0.0 0.0 0.00 0.02 0.02 88 1013.7
20260903224608 67 0.0 0.0 0.00 0.02 0.02 88 1014.1
20260903223059 68 0.0 0.0 0.00 0.02 0.02 88 1013.9
20260903221607 68 0.0 0.0 0.00 0.02 0.02 85 1013.7
20260903220121 68 0.0 0.0 0.00 0.02 0.02 85 1013.8
20260903214559 69 0.0 0.0 0.00 0.02 0.02 83 1013.9
20260903213105 70 0.0 0.0 0.00 0.02 0.02 81 1014.4
20260903211620 70 0.0 0.0 0.00 0.02 0.02 81 1014.3
20260903210113 72 0.0 0.0 0.00 0.02 0.02 79 1014.1
20260903204602 72 0.0 0.0 0.00 0.02 0.02 80 1014.0
20260903203101 72 0.0 0.0 0.00 0.02 0.02 80 1014.0
20260903201600 72 0.0 0.0 0.00 0.02 0.02 81 1013.9
20260903194559 71 0.0 0.0 0.00 0.02 0.02 82 1014.1
20260903193058 71 0.0 0.0 0.00 0.02 0.02 84 1014.3
20260903191559 72 0.0 0.0 0.00 0.02 0.02 81 1014.3
20260903190103 72 0.0 0.0 0.00 0.02 0.02 83 1014.4
20260903184603 70 0.0 0.0 0.00 0.02 0.02 85 1014.6
20260903183102 70 0.0 0.0 0.00 0.02 0.02 85 1014.6
20260903181600 71 0.0 0.0 0.00 0.02 0.02 84 1014.6
20260903180111 71 0.0 0.0 0.00 0.02 0.02 84 1014.4
20260903174610 69 0.0 0.0 0.00 0.02 0.02 88 1014.6
20260903173117 69 0.0 0.0 0.00 0.02 0.02 88 1014.7
20260903171604 68 0.0 0.0 0.00 0.02 0.02 89 1014.9
20260903170112 69 0.0 0.0 0.00 0.02 0.02 88 1015.0
20260903164610 69 0.0 0.0 0.00 0.02 0.02 88 1015.1
20260903163121 69 0.0 0.0 0.00 0.02 0.02 89 1015.0
20260903161602 69 0.0 0.0 0.00 0.02 0.02 85 1015.0
20260903160110 69 0.0 0.0 0.00 0.02 0.02 87 1014.9
20260903154603 68 0.0 0.0 0.00 0.02 0.02 90 1015.1
20260903153103 69 0.0 0.0 0.00 0.02 0.02 88 1015.2
20260903151601 69 0.0 0.0 0.00 0.02 0.02 86 1015.0
20260903150114 70 0.0 0.0 0.00 0.02 0.02 85 1015.0
20260903144601 68 0.0 0.0 0.00 0.02 0.02 88 1015.2
20260903143100 68 0.0 0.0 0.00 0.02 0.02 87 1015.3
20260903141601 69 0.0 0.0 0.00 0.02 0.02 87 1015.4
20260903140106 67 0.0 0.0 0.00 0.02 0.02 91 1015.4
20260903134606 66 0.0 0.0 0.00 0.02 0.02 92 1015.2
20260903133104 66 0.0 0.0 0.00 0.02 0.02 92 1015.4
20260903131603 65 0.0 0.0 0.00 0.02 0.02 92 1015.5
20260903130117 65 0.0 0.0 0.00 0.02 0.02 95 1015.4
20260903124615 64 0.0 0.0 0.00 0.02 0.02 96 1015.5
20260903123102 63 0.0 0.0 0.00 0.02 0.02 96 1015.6
20260903121559 63 0.0 0.0 0.00 0.02 0.02 98 1015.7
20260903120107 62 0.0 0.0 0.00 0.02 0.02 98 1015.6
20260903114608 62 0.0 0.0 0.00 0.02 0.02 98 1015.8
20260903113102 61 0.0 0.0 0.00 0.02 0.02 98 1015.8
20260903111625 61 0.0 0.0 0.00 0.02 0.02 98 1015.9
20260903110110 60 0.0 0.0 0.00 0.02 0.02 98 1015.8
20260903104633 59 0.0 0.0 0.00 0.02 0.02 98 1015.8
20260903103102 58 0.0 0.0 0.01 0.02 0.02 98 1015.8
20260903101600 57 0.0 0.0 0.02 0.02 0.02 98 1015.6
20260903100106 57 0.0 0.0 0.02 0.02 0.02 98 1015.8
20260903094608 57 0.0 0.0 0.02 0.02 0.02 98 1015.7
20260903093100 57 0.0 0.0 0.01 0.01 0.01 98 1015.9
20260903091604 57 0.0 0.0 0.00 0.00 0.00 98 1015.9
20260903090104 57 0.0 0.0 0.00 0.00 0.00 98 1016.0
20260903084603 57 0.0 0.0 0.00 0.00 0.00 97 1016.1
20260903083058 57 0.0 0.0 0.00 0.00 0.00 97 1016.3
20260903081603 57 0.0 0.0 0.00 0.00 0.00 97 1016.4
20260903080100 57 0.0 0.0 0.00 0.00 0.00 97 1016.3
20260903074603 57 0.0 0.0 0.00 0.00 0.00 97 1016.4
20260903073111 57 0.0 0.0 0.00 0.00 0.00 97 1016.5
20260903071603 57 0.0 0.0 0.00 0.00 0.00 97 1016.5
20260903070106 57 0.0 0.0 0.00 0.00 0.00 97 1016.5